CAPE
5 12 1 0 0 0 0 0 0 0 0 0 0 0 0 0 0 0 0 0 0 0 3 9 6 1 0 0 0 0 0 0 2 2 0 1 4 0 0 0 0 3 4
23 26 4 0 0 0 0 0 0 0 0 0 0 0 0 0 0 0 0 0 0 0 1 2 2 1 0 0 0 0 0 0 1 5 1 5 23 16 20 7 3 3 7
29 21 7 0 0 0 0 0 0 0 0 0 0 0 0 0 0 0 0 0 0 0 0 0 0 0 0 0 0 0 0 0 0 0 0 19 16 19 9 4 3 2 2
12 9 1 0 0 0 0 0 0 0 0 0 0 0 0 0 0 0 0 0 0 0 0 0 0 0 0 0 0 0 0 0 0 0 0 0 0 0 0 0 0 0 0
11 4 0 0 0 0 0 0 0 0 0 0 0 0 0 0 0 0 0 0 0 0 0 0 0 0 0 0 0 0 0 0 0 0 0 0 0 0 0 0 0 0 0
40 0 0 0 0 0 0 0 0 0 0 0 0 0 0 0 0 0 0 0 0 0 0 0 0 0 0 0 0 0 0 0 0 0 0 0 0 0 0 0 0 0 0
109 72 10 8 0 0 0 0 0 0 0 0 0 0 0 0 0 0 0 0 0 0 0 0 0 0 0 0 0 0 0 0 0 0 0 0 0 0 0 0 0 0 0
56 63 31 4 0 0 0 0 0 0 0 0 0 0 0 0 0 0 0 0 0 0 0 0 0 0 0 0 0 0 0 0 0 0 0 0 0 0 0 0 0 0 0
2 9 41 0 0 0 0 0 0 0 0 0 0 0 0 0 0 0 0 0 0 0 0 0 0 0 0 0 0 0 0 0 0 0 0 0 0 0 0 0 0 0 0
0 0 1 0 0 0 0 0 0 0 0 0 0 0 0 0 0 0 0 0 0 0 0 0 0 0 0 0 0 0 0 0 0 0 0 0 0 0 0 0 0 0 0
0 0 0 0 0 0 0 0 0 0 0 0 0 0 0 0 0 0 0 0 0 0 0 0 0 0 0 0 0 0 0 0 0 0 0 4 8 0 0 0 0 0 0
0 0 0 0 0 0 0 0 0 0 0 0 0 0 0 0 0 0 0 0 0 0 0 0 0 0 0 0 0 0 0 0 0 0 0 2 11 13 9 1 1 0 0
0 0 0 0 0 0 0 0 0 0 0 0 0 0 0 0 0 0 0 0 0 0 0 0 0 0 0 0 0 0 0 0 0 0 0 0 0 17 17 17 18 18 21
0 0 0 0 0 0 0 0 0 0 0 0 0 0 0 0 0 0 0 0 0 0 0 0 0 0 0 0 0 0 0 0 0 0 0 0 0 6 11 22 20 25 20
0 0 0 0 0 0 0 0 0 0 0 0 0 0 0 0 0 0 0 0 0 0 0 0 0 0 0 0 0 0 0 0 0 0 0 0 0 5 11 15 11 14 6
0 0 0 0 0 0 0 0 0 0 0 0 0 0 0 0 0 0 0 0 0 0 0 0 0 0 0 0 0 0 0 0 0 0 0 0 0 0 3 11 16 13 33
1 0 0 0 0 0 0 0 0 0 0 0 0 0 0 0 0 0 0 0 0 0 0 0 0 0 0 0 0 0 0 0 0 0 0 0 0 0 1 5 3 14 26
0 0 0 0 0 0 0 0 0 0 0 0 0 0 0 0 0 0 0 0 0 0 0 0 0 0 0 0 0 0 0 0 0 0 0 0 0 0 4 9 16 16 22
1 0 0 0 0 1 2 0 0 0 0 0 0 0 0 0 0 0 0 0 0 0 0 0 0 0 0 0 0 0 0 0 0 0 0 0 0 0 0 0 0 3 12
0 0 0 0 1 2 2 2 0 0 0 0 0 0 0 0 0 0 0 0 0 0 0 0 0 0 0 0 0 0 0 0 0 0 0 0 0 0 0 0 0 5 0
1 0 0 0 2 2 2 1 1 1 1 0 0 0 0 0 0 0 0 0 0 0 0 0 0 0 0 0 0 0 0 0 0 0 0 0 0 0 0 0 0 0 0
1 1 2 1 2 3 2 2 2 0 0 0 0 0 0 0 0 0 0 0 0 0 0 0 0 0 0 0 0 0 0 0 0 0 0 0 0 0 0 0 0 0 0
0 0 1 2 3 2 0 0 0 0 0 0 0 0 0 0 0 0 0 0 0 0 0 0 0 0 0 0 0 0 0 0 0 0 0 0 0 0 0 0 0 0 0
2 1 2 1 1 0 0 0 0 0 0 0 0 0 0 0 0 0 0 0 0 0 0 0 0 0 0 0 0 0 0 0 0 0 1 1 0 0 0 0 0 0 0
2 3 2 0 0 0 0 0 0 0 0 0 0 0 0 0 0 0 0 0 0 0 0 0 0 0 0 0 0 1 0 1 1 0 0 0 0 0 0 0 0 0 0
0 0 0 0 0 1 0 0 0 0 0 0 0 0 0 0 0 0 0 0 0 0 0 0 0 0 0 0 0 0 0 0 0 0 0 0 0 0 0 0 0 0 0
CIN
-43 -167 -66 0 0 0 0 0 0 0 0 0 0 0 0 0 0 0 0 0 0 0 0 -1 0 0 0 0 0 0 -1 0 -1 -1 0 0 0 0 -1 0 0 -1 -1
-179 -190 -162 0 0 0 0 0 0 0 0 0 0 0 0 0 0 0 0 0 0 0 0 0 0 0 0 0 0 -1 0 0 0 0 0 -1 -1 -2 -1 -1 0 0 0
-174 -215 -249 0 0 0 0 0 0 0 0 0 0 0 0 0 0 0 0 0 0 0 0 0 0 0 0 0 0 0 0 0 0 0 0 -1 0 -2 0 0 0 0 0
-189 -218 -147 0 0 0 0 0 0 0 0 0 0 0 0 0 0 0 0 0 0 0 0 0 0 0 0 0 0 0 0 0 0 0 0 0 0 0 0 0 0 0 -1
-185 -194 0 0 0 0 0 0 0 0 0 0 0 0 0 0 0 0 0 0 0 0 0 0 0 0 0 0 0 0 0 0 0 0 0 0 0 0 0 0 0 0 0
-118 -1 0 0 -36 0 0 0 0 0 0 0 0 0 0 0 0 0 0 0 0 0 0 0 0 0 0 0 0 0 0 0 0 0 0 0 0 0 0 0 0 0 0
-78 -77 -127 -156 0 0 0 0 0 0 0 0 0 0 0 0 0 0 0 0 0 0 0 0 0 0 0 0 0 0 0 0 0 0 0 0 0 0 0 0 0 0 0
-90 -67 -81 -110 0 0 0 0 0 0 0 0 0 0 0 0 0 0 0 0 0 0 0 0 0 0 0 0 0 0 0 0 0 0 0 0 0 0 0 0 0 0 0
-93 -40 -81 0 0 0 0 0 0 0 0 0 0 0 0 0 0 0 0 0 0 0 0 0 0 0 0 0 0 0 0 0 0 0 0 0 0 0 0 0 0 0 0
0 0 -23 -16 0 0 0 0 0 0 0 0 0 0 0 0 0 0 0 0 0 0 0 0 0 0 0 0 0 0 0 0 0 0 0 0 0 0 0 0 0 0 0
0 0 0 0 0 0 0 0 0 0 0 0 0 0 0 0 0 0 0 0 0 0 0 0 0 0 0 0 0 0 0 0 0 0 0 -2 -4 -1 0 0 0 0 0
0 0 0 0 0 0 0 0 0 0 0 0 0 0 0 0 0 0 0 0 0 0 0 0 0 0 0 0 0 0 0 0 0 0 0 -9 -6 -7 -12 -6 -7 -9 0
0 0 0 0 0 0 0 0 0 0 0 0 0 0 0 0 0 0 0 0 0 0 0 0 0 0 0 0 0 0 0 0 0 0 0 0 0 -10 -12 -10 -10 -5 -1
0 0 0 0 0 0 0 0 0 0 0 0 0 0 0 0 0 0 0 0 0 0 0 0 0 0 0 0 0 0 0 0 0 0 0 0 0 -22 -20 -16 -11 -1 -1
0 -32 0 0 0 0 0 0 0 0 0 0 0 0 0 0 0 0 0 0 0 0 0 0 0 0 0 0 0 0 0 0 0 0 0 0 0 -30 -32 -23 -15 -10 -21
0 0 0 0 0 0 0 0 0 0 0 0 0 0 0 0 0 0 0 0 0 0 0 0 0 0 0 0 0 0 0 0 0 0 0 0 0 0 -41 -28 -27 -21 -18
-162 0 0 0 0 0 0 0 0 0 0 0 0 0 0 0 0 0 0 0 0 0 0 0 0 0 0 0 0 0 0 0 0 0 0 0 0 0 -27 -42 -37 -31 -19
0 0 0 0 0 0 0 0 0 0 0 0 0 0 0 0 0 0 0 0 0 0 0 0 0 0 0 0 0 0 0 0 0 0 0 0 0 0 -31 -24 -17 -18 -16
0 0 -5 0 0 0 0 0 0 0 0 0 0 0 0 0 0 0 0 0 0 0 0 0 0 0 0 0 0 0 0 0 0 0 0 0 0 0 0 -3 0 -38 -21
0 0 0 0 0 0 0 0 0 0 0 0 0 0 0 0 0 0 0 0 0 0 0 0 0 0 0 0 0 0 0 0 0 0 0 0 0 0 0 0 0 -9 0
-76 0 0 0 0 0 0 0 0 0 0 0 0 0 0 0 0 0 0 0 0 0 0 0 0 0 0 0 0 0 0 0 0 0 0 0 0 0 0 0 0 0 0
0 0 0 0 0 0 0 0 0 0 0 0 0 0 0 0 0 0 0 0 0 0 0 0 0 0 0 0 0 0 0 0 0 0 0 0 0 0 0 0 0 0 0
0 0 0 0 0 0 0 0 0 0 0 0 0 0 0 0 0 0 0 0 0 0 0 0 0 0 0 0 0 0 0 0 0 -1 -4 0 0 0 0 0 0 0 0
0 0 0 0 0 0 0 0 0 0 0 0 0 0 0 0 0 0 0 0 0 0 0 0 0 0 0 0 0 0 0 -1 0 -1 -2 -1 0 0 0 0 0 0 0
0 0 0 0 0 0 0 0 0 0 0 0 0 0 0 0 0 0 0 0 0 0 0 0 0 0 0 0 0 0 0 0 0 0 -1 -6 0 0 0 0 0 0 0
0 0 0 0 0 0 0 0 0 0 0 0 0 0 0 0 0 0 0 0 0 0 0 0 0 0 0 0 0 0 -7 0 0 0 0 0 0 0 0 0 0 0 0
Wind_Speed
13 11 8 9 9 5 5 6 6 5 5 7 8 8 9 10 10 11 12 10 12 13 14 15 16 18 20 21 21 22 23 22 23 21 23 24 24 24 25 25 26 27 28
14 10 9 7 4 4 4 4 5 4 5 7 8 8 8 9 10 11 12 11 12 12 13 14 15 17 19 20 20 22 22 22 23 22 22 23 24 24 25 26 28 29 30
10 11 9 7 6 4 2 1 3 5 6 8 7 8 8 8 10 11 11 11 12 12 12 13 14 16 18 19 20 21 22 21 21 21 22 22 24 25 25 26 28 29 31
9 9 9 6 6 4 3 2 6 8 8 8 8 8 8 10 10 10 9 9 10 10 11 12 13 15 16 18 19 20 22 21 21 21 22 22 23 24 25 26 28 29 31
7 7 7 6 6 5 4 8 11 9 8 9 9 8 9 9 9 9 8 8 8 8 10 10 12 13 15 17 17 19 20 20 20 20 21 21 22 23 25 26 27 29 31
7 6 7 8 6 6 8 13 6 11 10 8 9 11 12 11 11 10 8 8 8 8 9 10 11 12 13 15 16 18 19 18 18 19 20 21 22 22 23 25 27 29 32
9 6 9 7 8 9 9 4 11 9 11 9 11 16 16 15 14 12 10 10 10 10 10 10 10 11 12 13 14 15 16 16 16 18 19 20 20 21 22 24 26 29 31
9 11 23 29 17 9 6 5 7 10 14 8 13 15 17 18 16 13 13 13 14 14 13 13 13 13 13 14 13 14 15 16 18 18 19 19 20 20 21 23 26 29 31
34 28 37 23 11 10 8 7 6 7 10 11 15 16 20 20 18 17 15 17 19 19 18 16 17 17 17 19 16 16 17 18 19 20 20 20 20 20 22 23 25 28 31
37 38 37 13 14 9 10 9 7 8 11 12 15 16 18 18 18 20 19 19 18 19 19 19 18 18 18 19 18 18 19 19 19 19 20 21 19 20 22 24 26 28 31
33 26 15 14 10 10 10 11 9 11 11 14 14 16 18 20 20 22 24 22 21 19 19 21 19 19 20 21 23 22 21 20 20 20 21 22 21 21 23 25 26 28 32
27 23 12 10 10 11 11 12 11 13 13 14 14 17 21 23 22 23 23 23 24 21 21 20 20 20 21 24 25 24 23 22 22 22 22 23 23 23 24 26 28 30 33
17 14 12 15 13 12 12 12 13 14 15 15 16 17 17 18 21 21 25 25 25 21 21 21 20 20 21 22 24 23 22 22 22 23 23 23 24 25 26 27 29 31 33
16 14 16 14 14 14 14 14 13 14 14 16 15 17 17 17 17 21 22 24 28 25 24 24 21 20 21 22 23 23 23 23 24 25 25 25 25 25 27 29 30 32 34
15 13 14 16 18 17 16 14 14 14 14 14 15 13 17 17 15 16 17 20 22 27 28 25 23 21 21 23 24 25 25 26 27 27 26 27 27 27 29 29 30 32 32
14 15 15 17 19 19 16 14 15 15 16 15 14 14 14 14 15 14 17 18 19 22 28 22 23 23 24 25 27 28 28 29 29 29 28 28 29 31 31 30 31 33 34
17 18 20 21 21 18 21 12 14 15 15 15 16 14 14 15 16 16 17 19 20 21 26 26 25 25 27 28 29 29 30 30 30 30 31 31 31 31 30 30 32 32 33
20 21 23 23 26 20 18 19 16 15 14 14 16 17 15 16 17 19 18 20 21 22 25 30 28 28 28 29 30 33 33 32 32 33 33 32 32 31 32 32 33 33 32
20 24 26 25 19 16 16 16 16 15 15 14 15 16 18 18 19 19 21 21 23 23 25 29 32 29 30 31 34 34 35 36 35 35 35 34 32 33 33 33 33 32 30
11 6 9 10 11 13 14 15 15 16 16 16 16 14 16 17 19 20 19 21 23 26 28 31 33 33 33 33 35 38 40 37 39 36 36 35 35 34 34 32 31 28 26
13 11 9 11 12 13 13 14 14 15 16 16 17 17 17 18 17 18 20 23 25 28 30 33 35 36 37 38 39 39 42 42 41 37 40 37 36 35 32 30 28 26 25
15 14 14 13 13 15 14 14 13 15 15 12 16 17 17 17 17 20 22 24 26 29 32 34 36 38 39 39 39 40 42 44 47 35 38 40 34 37 33 29 26 23 21
15 16 15 14 14 15 12 13 14 14 11 11 14 17 17 19 21 23 26 27 28 29 29 33 37 38 40 39 39 41 40 41 42 40 39 45 37 37 30 27 23 19 19
16 16 15 15 16 12 12 11 10 10 12 15 16 18 19 22 25 26 28 30 31 31 32 33 34 37 37 37 37 38 40 41 41 39 36 45 38 36 30 24 20 20 20
16 16 16 15 13 12 10 11 10 13 13 17 18 20 23 25 26 28 31 34 34 34 32 33 34 36 37 36 36 38 40 41 46 42 34 37 37 34 29 24 20 18 19
17 15 14 13 12 12 13 13 14 15 18 20 21 23 25 27 28 30 33 35 37 36 37 37 37 37 36 37 36 34 37 40 42 45 35 32 32 29 30 20 18 16 16
Wind_Direction
163 168 163 146 129 125 113 93 71 48 13 340 349 12 19 10 359 3 9 36 38 36 28 27 23 18 15 15 13 12 10 13 9 12 9 6 6 7 5 4 2 1 358
162 170 167 157 145 144 122 91 81 38 321 336 354 14 15 2 3 7 16 31 26 28 27 24 22 18 15 14 13 10 8 7 6 7 6 5 7 6 3 1 357 353 351
179 157 167 164 164 161 149 95 312 320 318 315 343 353 353 5 8 8 14 19 22 24 22 19 17 15 9 8 7 6 7 7 7 8 6 12 7 3 359 356 353 349 344
166 159 166 179 180 180 198 222 280 297 303 316 323 337 337 343 353 10 22 26 26 23 20 18 16 11 9 9 6 4 7 9 9 7 5 2 2 359 357 355 351 347 342
178 181 178 179 187 205 229 261 274 286 298 312 317 332 334 343 359 9 14 19 20 19 12 10 5 4 3 0 360 1 6 8 4 4 2 3 2 358 355 353 349 345 341
217 218 186 181 194 195 249 263 277 287 300 312 313 315 316 330 340 346 353 356 357 360 359 356 352 352 353 352 352 352 354 357 359 357 358 356 352 353 353 351 346 343 339
235 208 171 192 215 171 166 215 278 290 299 306 308 304 310 316 320 325 331 335 339 341 338 339 342 343 344 345 346 350 352 352 353 349 348 349 350 348 347 346 343 341 339
220 164 162 173 245 232 219 226 269 289 298 297 303 309 313 312 317 318 320 321 323 327 323 325 327 326 329 331 334 338 341 339 338 337 338 337 340 342 341 340 339 338 337
224 231 211 245 242 200 219 210 240 267 290 291 300 308 309 308 320 319 313 314 315 316 316 319 319 319 321 323 323 325 325 327 326 327 329 329 330 332 334 334 335 335 335
215 217 209 183 184 236 247 215 233 263 288 286 296 299 308 316 315 315 316 316 315 313 315 317 320 321 322 322 321 319 317 316 318 318 322 323 322 324 326 328 329 330 331
187 185 185 191 205 212 227 219 241 264 278 287 286 299 301 305 308 309 309 314 316 319 322 321 319 321 322 324 324 324 321 316 313 312 315 318 318 318 320 322 323 325 327
187 189 247 241 225 220 239 245 253 265 265 281 286 296 301 300 300 302 304 310 313 318 319 322 322 322 322 323 324 325 324 322 318 314 312 314 314 314 315 316 318 320 322
195 211 225 259 252 243 250 253 261 269 275 275 289 291 304 304 300 308 304 309 310 315 318 317 317 320 322 323 324 323 323 322 322 319 315 313 312 310 311 312 314 316 319
210 218 217 248 235 256 262 264 266 272 281 279 285 296 295 303 298 300 298 303 307 311 315 315 320 315 317 320 322 321 321 319 318 319 314 313 311 308 308 310 313 315 316
221 236 246 245 258 260 264 257 261 268 277 285 274 292 296 296 298 302 300 305 308 309 312 316 316 319 318 320 320 320 319 317 315 314 313 311 310 308 309 309 309 312 313
246 259 253 259 261 259 252 260 268 276 278 284 282 285 295 292 299 301 301 304 308 307 309 315 315 316 318 318 318 318 317 317 316 315 313 312 311 310 309 308 308 309 308
254 258 267 270 267 255 263 260 267 267 273 274 279 278 292 289 296 298 301 304 306 308 307 313 314 318 317 316 317 317 317 317 316 315 315 313 312 311 309 305 304 306 306
265 270 273 270 277 266 264 265 271 266 267 267 271 274 288 290 295 301 303 304 305 308 309 309 314 315 315 318 317 317 318 318 317 315 314 313 311 310 308 306 305 305 304
288 287 282 277 262 261 264 265 263 260 264 272 278 275 287 293 295 300 300 302 307 310 311 312 314 317 318 319 318 318 318 317 317 316 315 313 312 311 310 309 307 306 305
297 278 224 231 245 259 267 270 271 273 272 278 280 280 291 294 296 300 300 305 309 310 312 312 314 315 316 319 319 318 317 318 317 318 315 313 311 311 310 309 309 309 309
254 274 272 272 273 264 265 268 271 277 274 283 275 295 298 302 302 305 306 308 310 311 311 312 313 314 314 316 316 318 316 317 318 318 317 316 314 313 311 310 308 307 308
292 293 292 279 273 274 269 259 273 286 291 289 286 307 310 311 312 315 314 314 313 312 312 312 312 312 313 315 316 317 317 318 318 323 320 319 320 317 314 312 310 307 308
294 295 291 284 277 282 266 278 292 294 280 289 291 302 307 311 313 313 314 315 314 314 314 313 311 313 314 316 317 316 316 316 315 318 319 317 319 315 314 312 308 306 308
304 302 301 298 297 291 292 293 302 307 302 306 308 310 309 311 314 313 313 313 314 315 315 315 314 314 315 316 315 315 315 315 315 317 319 316 320 316 315 309 304 304 307
314 311 309 305 302 306 312 307 306 305 305 311 314 315 314 313 315 316 315 314 314 315 318 318 317 317 317 317 317 316 315 315 315 316 319 317 319 319 316 308 303 303 307
319 319 319 320 316 314 317 312 312 307 308 310 314 317 317 316 316 316 316 314 314 316 317 318 318 318 319 318 317 315 315 314 315 317 321 316 319 323 320 316 308 306 312